www.pogodaiklimat.ru

Погода и климат >> Архив погоды >> Индия >> Махараштра >> Нагпур


ПОГОДА в Нагпуре

  • Прогноз погоды в Нагпуре
  • Монитор погоды в Нагпуре

АРХИВ ПОГОДЫ в Нагпуре

Время (UTC), дата Ветер
(напр.,м/с)
 
Видим.   Явления Облачность Т
(С)
Тd
(С)
f
(%)
Тe
(С)
Тes
(С)
Комфортность P
(гПа)
Po
(гПа)
Тmin
(С)
Tmax
(С)
R
(мм)
R24
(мм)
S
(см)
00 13.05 В 4 2000 м мгла 3/0
[Ac trans]
+28.4 +16.2 48 +32 +32 душно 1005.8 971.1
03 13.05 ЮВ 1 4000 м мгла 4/3 600 м
[Sc Ac trans]
+34.0 +18.8 41 +39 +45 очень
душно
1007.0 972.9 +27.6
06 13.05 С 1 4000 м мгла 5/0
[Ac trans]
+40.8 +20.2 31 +46 +64 опасность
перегрева
1005.2 971.8
09 13.05 З 3 4000 м 6/6 600 м
[Cu Sc]
+43.6 +19.1 25 +48 +53 опасность
перегрева
1001.5 968.6
12 13.05 З 7 4000 м мгла 6/6 600 м
[Cu med, cong]
+41.6 +19.4 28 +46 +46 опасность
перегрева
999.8 966.7 +44.5
15 13.05 ЮЗ 1 2000 м мгла 5/4 600 м
[Cu Sc Ac trans]
+36.4 +18.1 34 +40 +40 очень
душно
1001.0 967.3
18 13.05 З 4 2000 м мгла 3/0
[Ac trans]
+35.0 +17.7 36 +39 +39 очень
душно
1003.3 969.4
21 13.05 С 3 2000 м мгла 5/5 600 м
[Cb cap]
+33.0 +15.8 36 +36 +36 очень
душно
1002.6 968.5
00 14.05 С 1 2000 м мгла 5/5 600 м
[Cb cap]
+31.2 +16.6 42 +35 +35 очень
душно
1004.9 970.5
03 14.05 штиль 0 4000 м мгла 1/0
[Ac trans]
+35.2 +17.6 35 +39 +49 очень
душно
1006.1 972.1 +28.8
06 14.05 В 2 4000 м мгла ясно +39.2 +18.8 31 +43 +67 опасность
перегрева
1003.3 969.8
09 14.05 З 6 4000 м 5/4 600 м
[Cu Sc Ac trans]
+42.8 +20.7 28 +48 +51 опасность
перегрева
1002.0 969.0
12 14.05 Ю 5 4000 м 6/5 600 м
[Cu Sc Ac trans]
+42.4 +19.7 27 +47 +47 опасность
перегрева
1000.4 967.4 +44.0
15 14.05 З 3 2000 м мгла 4/4 600 м
[Sc Ac trans]
+35.8 +18.4 36 +40 +40 очень
душно
1002.5 968.7
18 14.05 З 2 2000 м мгла 4/1 600 м
[Sc Ac trans]
+34.2 +16.2 34 +37 +37 очень
душно
1004.1 970.1
21 14.05 З 2 2000 м мгла 4/1 600 м
[Sc Ac trans]
+32.8 +15.1 34 +35 +35 душно 1003.5 969.3
00 15.05 З 2 2000 м мгла 4/1 600 м
[Sc Ac trans]
+29.6 +16.1 44 +33 +33 душно 1004.9 970.3
03 15.05 СЗ 2 4000 м мгла 4/0
[Ac trans]
+36.4 +18.1 34 +40 +46 очень
душно
1006.3 972.4 +28.2
06 15.05 С 1 4000 м 4/0
[Ac trans]
+41.0 +20.1 30 +46 +65 опасность
перегрева
1005.8 972.4
09 15.05 Ю 2 4000 м мгла 5/4 600 м
[Cu Sc Ac trans]
+42.6 +21.6 30 +49 +59 опасность
перегрева
1002.7 969.6
12 15.05 Ю 2 4000 м мгла 4/4 600 м
[Cu Sc]
+42.6 +17.0 23 +45 +46 опасность
перегрева
1001.0 968.0 +44.3
15 15.05 З 2 2000 м мгла 3/1 600 м
[Sc Ac trans]
+35.4 +16.7 33 +38 +38 очень
душно
1003.2 969.3
18 15.05 С 1 2000 м мгла 4/1 600 м
[Sc Ac trans]
+35.0 +16.5 33 +38 +38 очень
душно
1004.8 970.8
21 15.05 З 2 2000 м мгла 1/0
[Ac trans]
+29.8 +15.2 41 +32 +32 душно 1004.4 969.9
00 16.05 З 2 2000 м мгла 4/3 600 м
[Sc Ac trans]
+29.6 +15.7 43 +32 +32 душно 1005.7 971.1
03 16.05 С 4 4000 м мгла 5/1 600 м
[Sc Ac trans]
+36.0 +19.1 37 +41 +44 опасность
перегрева
1007.7 973.8 +28.4
06 16.05 З 3 4000 м мгла 3/3 600 м
[Sc]
+42.2 +20.6 29 +48 +61 опасность
перегрева
1006.2 973.0
09 16.05 З 3 4000 м мгла 4/4 750 м
[Cu med, cong]
+44.6 +21.3 27 +51 +59 опасность
перегрева
1002.6 969.7
12 16.05 ЮЗ 5 4000 м мгла 4/4 600 м
[Sc]
+43.0 +21.0 29 +49 +50 опасность
перегрева
1002.5 969.5 +45.0
15 16.05 ЮЗ 2 4000 м мгла 1/0
[Ac trans]
+36.0 +19.1 37 +41 +41 опасность
перегрева
1005.0 971.1
18 16.05 З 3 2000 м мгла ясно +34.6 +19.2 40 +40 +40 очень
душно
1006.0 972.0
21 16.05 З 2 2000 м мгла ясно +32.6 +18.5 43 +37 +37 очень
душно
1005.2 971.0
00 17.05 СЗ 2 2000 м мгла ясно +31.0 +17.6 45 +35 +35 очень
душно
1006.2 971.8
03 17.05 З 4 2000 м мгла ясно +36.4 +20.8 40 +43 +48 опасность
перегрева
1009.6 975.6 +30.1
06 17.05 З 5 4000 м мгла ясно +41.5 +22.6 34 +50 +62 опасность
перегрева
1006.1 972.8
09 17.05 З 5 4000 м мгла 3/1 750 м
[Cu hum Ac trans]
+44.8 +23.5 30 +54 +61 опасность
перегрева
1002.5 969.6
12 17.05 СЗ 3 4000 м мгла 1/1 600 м
[Sc]
+43.0 +22.1 31 +51 +52 опасность
перегрева
1001.3 968.3 +45.4
15 17.05 ЮЗ 2 2000 м мгла 1/0
[Ac trans]
+37.0 +20.1 37 +43 +43 опасность
перегрева
1003.9 970.2
18 17.05 З 2 2000 м мгла 1/0
[Ac trans]
+34.6 +15.1 31 +36 +36 душно 1004.4 970.4
21 17.05 З 4 2000 м мгла ясно +33.4 +15.1 33 +35 +35 душно 1004.2 970.1
00 18.05 СЗ 4 2000 м мгла 3/0
[Ac trans]
+32.2 +14.7 35 +34 +34 душно 1005.4 971.1
03 18.05 С 4 4000 м мгла 5/0
[Ac trans]
+35.4 +21.7 45 +43 +48 опасность
перегрева
1007.1 973.1 +32.7
06 18.05 СЗ 3 4000 м мгла 3/1 600 м
[Sc Ac trans]
+41.0 +22.6 35 +49 +65 опасность
перегрева
1006.3 972.9
09 18.05 З 2 4000 м 5/5 600 м
[Cu Sc]
+43.0 +22.5 31 +51 +59 опасность
перегрева
1003.1 970.0
12 18.05 С 5 4000 м 6/6 600 м
[Cu Sc]
+41.2 +21.5 33 +48 +49 опасность
перегрева
1002.2 969.0 +43.9
15 18.05 С 2 4000 м мгла 5/3 600 м
[Sc Ac trans]
+37.2 +19.9 37 +43 +43 опасность
перегрева
1004.0 970.3
18 18.05 штиль 0 2000 м мгла ясно +31.0 +19.4 50 +37 +37 очень
душно
1005.6 971.2
21 18.05 штиль 0 2000 м мгла 1/0
[Ac trans]
+28.0 +18.0 55 +33 +33 очень
душно
1004.9 970.2
00 19.05 В 1 2000 м мгла 1/0
[Ac trans]
+28.6 +18.3 54 +33 +33 очень
душно
1005.6 970.9
03 19.05 С 3 4000 м мгла ясно +36.0 +20.6 41 +43 +50 опасность
перегрева
1007.7 973.8 +28.0
06 19.05 С 2 4000 м мгла ясно +39.6 +22.7 38 +48 +72 опасность
перегрева
1007.1 973.6
09 19.05 З 4 4000 м 4/4 600 м
[Sc]
+42.8 +15.5 21 +44 +51 опасность
перегрева
1004.0 970.9
12 19.05 З 4 4000 м мгла 6/5 600 м
[Cu Sc Ac trans]
+42.0 +14.1 20 +43 +43 опасность
перегрева
1002.5 969.4 +44.1
15 19.05 З 2 2000 м мгла 8/4 600 м
[Cu Sc Ac trans]
+37.0 +21.5 41 +45 +45 опасность
перегрева
1005.0 971.3
18 19.05 штиль 0 2000 м мгла 4/4
[Sc Ac trans]
+32.4 +20.1 48 +39 +39 очень
душно
1006.6 972.3

 

Местоположение метеостанции Нагпур (Махараштра, Индия): широта 21.10 долгота 79.05 высота над уровнем моря 310 м.

В архиве по умолчанию представлена погода в Нагпуре за последнюю неделю. Архивные данные за месяц целиком и за предыдущие месяцы, начиная с января 2011 года, Вы можете получить, выбрав интересующий диапазон дат из раскрывающегося списка и нажав кнопку "Ввод!".


*Определитесь, кто Вы:
робот инопланетянин человек

Внимание! Время в таблицах - всемирное. Для получения местного времени необходимо прибавить поправку, которая равна 5.5 ч.

Смотрите также архив погоды в соседних городах и на ближайших метеорологических станциях:

Погода в Вардхе (Махараштра, Индия) (68 км)
Погода в Брамапури (Махараштра, Индия) (100 км)
Погода в Чхиндваре (Мадхья-Прадеш, Индия) (111 км)
Погода в Сеони (Мадхья-Прадеш, Индия) (121 км)
Погода в Яватмале (Махараштра, Индия) (122 км)
Погода в Гондии (Махараштра, Индия) (126 км)
Погода в Чандрапуре (Махараштра, Индия) (128 км)
Погода в Амравати (Махараштра, Индия) (133 км)
Погода в Бетуле (Мадхья-Прадеш, Индия) (144 км)
Погода в Пачмарае (Мадхья-Прадеш, Индия) (165 км)

Пояснения к столбцам:

Ветер - указаны скорость ветра в м/с - средняя за 10 мин, порывы в срок и между сроками (в фигурных скобках) и направление, откуда дует ветер: С - северный, СВ - северо-восточный, В - восточный, ЮВ - юго-восточный, Ю - южный, ЮЗ - юго-западный, З - западный, СЗ - северо-западный.
Видимость - горизонтальная дальность видимости в метрах или километрах. При видимости от 1 до 10 км при отсутствии осадков обычно наблюдается дымка, при ухудшении видимости до 1 км и менее - туман. В сухую погоду видимость может ухудшаться дымом, пылью или мглою.
Явления - указаны атмосферные явления, наблюдавшиеся в срок или в последний час перед сроком; фигурными скобками обозначены явления, наблюдавшиеся между сроками (за 1-3 часа до срока); квадратными скобками обозначены град или гололедные отложения с указанием их диаметра в мм.
Облачность - указаны через наклонную черту общая и нижняя облачность в баллах и высота нижней границы облаков в метрах; квадратными скобками обозначены формы облаков: Ci - перистые, Cs - перисто-слоистые, Cc - перисто-кучевые, Ac - высококучевые, As - высокослоистые, Sc - слоисто-кучевые, Ns - слоисто-дождевые, Cu - кучевые, Cb - кучево-дождевые. Подробнее классификацию облаков см. в Атласе облаков (PDF).
T - Температура воздуха - температура, измеренная на высоте 2 м над землей.
Td - Температура точки росы - температура, при понижении до которой содержащийся в воздухе водяной пар достигнет насыщения.
f - Относительная влажность воздуха - влажноcть воздуха, измеренная на высоте 2 м над землей.
Te - Эффективная температура - температура, которую ощущает одетый по сезону человек в тени. Характеристика душности погоды. При расчете учитывается влияние влажности воздуха и скорости ветра на теплоощущения человека.
Tes - Эффективная температура на солнце - температура, которую ощущает человек, с поправкой на солнечный нагрев. Характеристика знойности погоды. Зависит от высоты солнца над горизонтом, облачности и скорости ветра. Ночью, в пасмурную погоду, а также при ветре 12 м/с и более поправка равна нулю.
P - Атмосферное давление - приведенное к уровню моря атмосферное давление.
Po - Атмосферное давление - измеренное на уровне метеостанции атмосферное давление.
Tmin - Минимальная температура - минимум температуры воздуха на высоте 2 м над землей.
Tmax - Максимальная температура - максимум температуры воздуха на высоте 2 м над землей.
R - Количество осадков - Количество выпавших осадков за период времени, мм. При наведении курсора мыши на число - период времени, за который выпало указанное количество осадков.
R24 - Количество осадков - Количество выпавших осадков за 24 часа, мм.
S - Снежный покров - Высота снежного покрова, см. При наведении курсора мыши на число - состояние снежного покрова и степень покрытия местности в баллах.